Weather History for CWMT - October, 2012

Change the Weather History Date:

Thursday, October 4, 2012

  Actual Average Record
Temperature  
Mean Temperature 34 °F -  
Max Temperature 48 °F - - ()
Min Temperature 21 °F - - ()
Degree Days  
Heating Degree Days 30    
Moisture  
Dew Point 27 °F    
Average Humidity 78    
Maximum Humidity 100    
Minimum Humidity 30    
Precipitation  
Precipitation 0.00 in - - ()
Sea Level Pressure  
Sea Level Pressure 30.35 in    
Wind  
Wind Speed 4 mph ()    
Max Wind Speed 13 mph    
Max Gust Speed -    
T = Trace of Precipitation, MM = Missing Value Source: Averaged Metar Reports

Daily Weather History Graph

Daily Weather History Graph

Search for Another Location

Airport or City:

Trip Planner

Search our weather history database for the weather conditions in past years. The results will help you decide how hot, cold, wet, or windy it might be!

Date:

Astronomy

Oct. 04, 2012 Rise Set
Actual Time 8:07 AM MDT 7:06 PM MDT
Civil Twilight 7:21 AM MDT 7:52 PM MDT
Nautical Twilight 6:27 AM MDT 8:45 PM MDT
Astronomical Twilight 5:30 AM MDT 9:42 PM MDT
Moon 8:05 PM MDT (10/4) 2:07 PM MDT (10/4)
Length of Visible Light 12h 31m
Length of Day
10h 59m
Waning Gibbous, 81% of the Moon is Illuminated
Oct 4
Waning Gibbous
Oct 8
Last Quarter
Oct 15
New
Oct 21
First Quarter
Oct 29
Full

Hourly Weather History & Observations

Time (MDT) Temp. Windchill Dew Point Humidity Pressure Visibility Wind Dir Wind Speed Gust Speed Precip Events Conditions
12:00 AM 28 °F - 27 °F 93% 30.39 in - East 1.2 mph - -  
12:00 AM 27.9 °F - 26.8 °F 96% 30.39 in - East 1.2 mph - N/A   Unknown
1:00 AM 25.0 °F 20.7 °F 24.3 °F 97% 30.39 in - East 3.5 mph - N/A   Unknown
2:00 AM 23.9 °F 19.5 °F 23.5 °F 99% 30.39 in - East 3.5 mph - N/A   Unknown
3:00 AM 25.2 °F - 25.2 °F 100% 30.40 in - East 1.2 mph - N/A   Unknown
4:00 AM 22.3 °F 17.6 °F 21.9 °F 99% 30.40 in - East 3.5 mph - N/A   Unknown
5:00 AM 21.4 °F - 20.5 °F 96% 30.40 in - East 2.3 mph - N/A   Unknown
6:00 AM 22 °F - 21 °F 94% 30.40 in - East 4.6 mph - -  
6:00 AM 21.7 °F 15.5 °F 21.0 °F 97% 30.40 in - East 4.6 mph - N/A   Unknown
7:00 AM 21.6 °F 16.8 °F 20.7 °F 96% 30.40 in - East 3.5 mph - N/A   Unknown
8:00 AM 23.9 °F 19.5 °F 23.7 °F 99% 30.39 in - ESE 3.5 mph - N/A   Unknown
9:00 AM 29.8 °F 26.3 °F 29.7 °F 99% 30.38 in - ESE 3.5 mph - N/A   Unknown
10:00 AM 31.8 °F 28.5 °F 32.0 °F 100% 30.37 in - ESE 3.5 mph - N/A   Unknown
11:00 AM 35.2 °F 31.2 °F 34.2 °F 96% 30.38 in - SE 4.6 mph - N/A   Unknown
12:00 PM 40 °F - 36 °F 80% 30.36 in - SSE 5.8 mph - -  
12:00 PM 39.9 °F 35.8 °F 36.0 °F 86% 30.36 in - SSE 5.8 mph - N/A   Unknown
1:00 PM 44.4 °F 41.2 °F 37.0 °F 75% 30.34 in - ESE 5.8 mph - N/A   Unknown
2:00 PM 46.8 °F - 28.4 °F 49% 30.33 in - South 11.5 mph - N/A   Unknown
3:00 PM 47.7 °F - 27.0 °F 45% 30.32 in - SSW 12.7 mph - N/A   Unknown
4:00 PM 48.4 °F - 25.9 °F 42% 30.32 in - SSW 11.5 mph - N/A   Unknown
5:00 PM 48.4 °F - 24.6 °F 39% 30.31 in - SSW 11.5 mph - N/A   Unknown
6:00 PM 47 °F - 26 °F 30% 30.30 in - SSW 9.2 mph - -  
6:00 PM 47.5 °F - 25.5 °F 42% 30.30 in - SSW 9.2 mph - N/A   Unknown
7:00 PM 43.9 °F 39.9 °F 27.9 °F 53% 30.28 in - South 6.9 mph - N/A   Unknown
8:00 PM 40.6 °F 36.7 °F 30.0 °F 66% 30.27 in - South 5.8 mph - N/A   Unknown
9:00 PM 38.3 °F 33.2 °F 29.1 °F 70% 30.27 in - South 6.9 mph - N/A   Unknown
10:00 PM 36.9 °F 31.4 °F 28.9 °F 73% 30.26 in - South 6.9 mph - N/A   Unknown
11:00 PM 37.0 °F 32.4 °F 29.1 °F 73% 30.23 in - South 5.8 mph - N/A   Unknown